Location: Canet
(43.3261°N, 5.3723°E)
Time: 18:31:14
(UTC+00:00)

COSMO-SKYMED 1 - Pass Details

Date: 24 January 2021
Orbit: 621 x 623 km, 97.9° (Epoch: 02 March)

Event Time Altitude Azimuth Distance (km) Brightness Sun altitude
Rises 17:32:18 0° 16° (NNE) 2,914 5.7 -9.7°
Reaches altitude 10° 17:34:32 10° 20° (NNE) 2,002 4.8 -10.1°
Maximum altitude 17:38:51 62° 101° (E) 705 2.6 -10.8°
Drops below altitude 10° 17:43:07 10° 182° (S) 1,985 5.4 -11.6°
Sets 17:45:19 0° 186° (S) 2,886 6.3 -12.0°
